Dewpoint
58 60 58 58 60 59 58 58 60 59 59 60 60 60 59 58 59 59 60 59 57 59 61 60 60 59 59 58 58 58 49 20 15 16 14 19 40 53 55 56 57 59 53 28 22 15 13 14 19 18 9 14 17 20 23 14 25 26 17 17 14 12 14 18 12 15 15 14 13 20 26 29 26 25 20 17 16 17 20 21 19 19 17 13 13 18 20 22
59 60 59 58 59 58 58 58 57 57 58 60 59 60 60 57 59 59 57 58 59 60 60 59 59 59 58 58 57 56 32 18 12 13 17 37 51 53 57 56 57 59 52 22 22 20 13 13 17 10 7 13 18 18 17 16 21 21 18 13 7 16 14 20 14 15 11 11 15 19 20 30 26 19 20 19 18 16 20 20 17 18 19 15 18 20 20 17
59 60 59 59 59 59 59 59 58 59 60 59 60 59 59 58 57 59 59 57 59 60 60 60 58 58 59 58 56 52 29 17 17 15 14 51 52 55 55 57 56 53 26 23 26 22 23 18 21 12 11 9 11 15 16 15 18 21 18 14 16 17 14 18 12 14 14 12 10 18 20 28 27 19 15 18 16 13 18 19 17 17 17 17 16 19 18 16
59 60 59 59 58 58 58 59 60 59 60 60 60 59 59 59 59 58 59 59 59 60 60 59 60 58 58 57 58 41 21 16 14 17 20 49 54 54 54 55 55 43 35 31 27 27 20 15 15 11 16 13 15 11 16 16 15 15 12 15 15 16 13 9 15 10 12 14 11 18 17 21 20 18 16 15 16 16 13 16 17 15 16 17 16 18 18 16
58 59 59 58 58 58 59 58 58 58 59 59 59 60 58 58 60 59 60 58 59 58 61 60 59 57 58 56 48 23 19 9 13 18 20 51 52 52 51 56 52 37 33 30 17 15 19 16 13 16 15 12 18 13 11 10 9 17 11 15 13 16 6 9 12 9 9 15 15 16 13 14 15 16 15 14 17 16 17 14 16 16 15 16 15 17 17 16
57 57 58 57 56 58 58 58 57 58 59 59 59 60 57 58 58 59 58 60 59 60 60 59 59 58 57 51 31 26 12 4 19 15 53 52 53 50 49 52 49 32 21 16 14 13 12 9 9 15 14 11 12 10 9 7 12 12 15 11 13 11 7 8 9 10 12 13 13 15 15 12 12 12 14 14 17 18 22 21 19 17 19 16 16 16 17 17
57 57 57 56 56 57 57 57 56 57 58 58 58 59 59 57 58 58 59 58 59 60 60 58 58 57 55 47 36 23 15 17 10 18 41 49 50 46 47 44 44 27 21 18 17 13 12 8 9 20 14 14 11 8 11 17 13 11 10 12 9 10 6 9 8 11 9 10 9 13 16 12 10 10 14 12 14 20 22 20 25 22 20 17 15 16 17 17
57 57 57 55 57 56 57 57 56 57 57 56 57 58 57 57 57 58 58 59 59 60 59 58 58 57 50 31 25 21 19 18 12 20 43 45 32 28 45 26 26 24 19 19 18 12 12 10 9 20 13 9 16 11 20 17 19 16 13 16 8 7 6 7 8 9 9 9 10 11 9 9 10 10 8 7 8 10 10 11 20 17 16 16 15 16 17 17
58 58 57 57 55 57 56 56 57 57 56 56 57 58 58 57 57 58 57 58 58 59 58 58 58 56 47 27 17 12 12 17 16 19 28 21 21 21 23 16 19 18 19 20 20 15 12 14 15 10 12 16 14 18 19 15 16 17 13 9 7 6 10 12 9 9 8 8 10 7 6 7 8 13 8 7 9 11 13 15 13 14 15 15 15 16 15 15
58 58 57 56 54 55 55 55 57 57 56 56 57 57 57 58 58 57 57 57 58 58 59 58 58 51 32 23 22 9 14 20 20 21 21 21 21 20 20 20 16 16 16 14 20 19 14 12 16 14 15 15 16 20 22 15 16 20 20 16 7 7 16 12 8 8 10 9 8 5 5 8 9 11 6 14 12 12 9 13 13 11 12 12 15 16 16 15
58 57 56 55 54 54 55 57 55 55 56 56 56 57 58 58 57 57 57 58 57 58 59 58 53 43 24 18 15 12 17 16 23 19 21 21 20 19 20 20 18 14 12 12 17 21 18 13 17 18 23 17 17 16 17 17 17 14 12 16 14 14 17 14 9 8 9 6 8 4 5 8 9 9 8 11 13 13 9 11 15 13 12 11 13 14 15 14
57 57 56 57 56 55 56 55 55 55 55 56 57 57 58 57 56 56 57 57 58 58 57 57 49 26 24 21 16 15 16 17 23 19 20 20 20 22 21 22 18 15 13 12 14 15 20 18 20 23 16 20 16 18 19 23 15 16 16 14 18 17 14 17 11 9 11 6 8 7 9 10 10 8 12 12 14 13 8 9 11 13 13 12 13 14 16 18
57 57 57 57 57 57 56 55 55 55 56 57 57 57 56 56 56 56 56 57 57 56 57 56 47 31 27 21 15 17 17 20 22 19 17 22 21 22 23 21 18 16 13 11 12 13 25 25 24 24 26 20 21 15 21 18 17 19 16 17 16 19 16 17 14 9 8 8 8 10 9 15 12 13 13 14 13 11 8 8 9 12 12 13 14 15 16 17
57 57 56 56 56 56 56 55 55 56 56 57 57 57 56 56 56 56 56 57 58 58 58 53 34 29 22 18 18 17 19 30 17 16 16 22 19 18 20 20 20 20 22 13 18 28 30 29 26 25 30 22 19 25 17 21 21 13 18 23 15 13 13 18 14 8 7 9 10 14 10 12 12 14 15 16 15 12 8 8 9 11 12 14 16 16 16 17
56 55 56 56 56 56 56 56 57 56 56 57 56 56 57 57 57 57 57 57 57 58 54 47 29 27 20 17 18 20 46 18 16 16 17 19 19 18 18 20 20 20 19 15 22 29 27 24 22 19 18 26 26 18 18 20 20 22 12 17 19 11 17 18 18 9 7 8 10 15 9 12 10 11 16 17 15 14 9 8 9 11 13 14 15 15 16 16
55 55 56 56 55 55 56 56 56 55 55 55 56 57 57 57 57 56 58 56 55 55 41 31 30 24 20 14 15 34 16 16 16 16 17 22 20 18 20 21 20 19 16 16 23 24 25 26 20 20 21 18 21 18 20 14 20 19 11 12 13 14 17 16 13 13 12 9 10 12 13 10 8 12 17 18 15 13 9 8 11 12 14 15 15 16 17 18
54 54 55 55 55 55 56 56 55 55 55 55 56 56 55 57 57 58 53 51 44 42 28 25 29 26 18 15 16 12 14 15 17 18 17 21 21 21 21 19 18 17 18 19 20 17 17 17 23 20 25 16 23 21 12 14 12 17 17 11 14 12 14 14 17 11 10 9 9 11 14 11 10 16 17 18 16 13 11 9 11 13 14 16 16 17 18 19
53 54 56 54 54 55 56 56 55 55 55 54 56 56 48 52 52 48 38 42 37 36 33 31 28 19 16 13 11 14 17 18 18 17 18 17 23 21 20 19 20 16 17 14 15 13 17 14 23 17 21 21 19 17 9 11 8 9 11 14 16 15 15 14 13 16 12 18 13 10 10 11 14 16 17 17 17 11 9 10 12 14 15 16 18 19 21 22
54 56 54 54 55 55 55 55 55 55 53 53 55 55 52 48 38 31 31 29 28 25 20 20 21 15 11 12 15 17 18 18 17 18 19 19 23 22 25 22 19 14 16 11 15 17 22 20 23 19 15 17 16 19 17 17 15 14 13 13 13 13 13 11 14 17 16 14 17 13 12 13 15 16 16 17 18 14 11 12 14 16 17 18 20 22 22 23
55 55 54 54 54 55 55 55 54 54 51 41 34 32 34 27 26 24 29 30 22 21 21 24 25 25 22 17 19 19 19 17 15 18 19 20 29 19 18 19 22 22 22 16 20 23 26 19 15 16 20 21 19 19 18 17 17 17 17 14 13 12 12 13 14 16 22 17 15 16 16 14 15 15 16 17 18 18 18 17 18 18 18 20 21 22 22 21
55 55 53 54 55 55 56 55 54 52 48 37 36 29 15 16 12 14 18 21 24 29 28 27 24 20 18 19 19 19 17 17 16 18 19 23 20 16 15 20 22 18 18 24 22 26 27 21 22 24 21 19 18 18 18 16 16 18 14 12 13 13 13 13 13 17 22 18 17 16 14 14 15 15 16 17 18 18 18 17 18 18 20 21 21 21 20 19
55 54 53 54 54 55 56 55 54 51 46 35 32 23 21 22 19 20 20 21 26 31 30 29 31 18 19 20 19 19 18 17 16 17 21 22 20 13 21 19 21 17 22 26 24 23 21 15 22 22 23 22 20 18 17 18 17 16 13 14 12 14 14 14 17 19 19 17 17 16 14 13 14 15 17 17 17 19 20 20 19 20 21 21 21 20 18 17
56 54 53 54 54 54 56 57 54 48 36 33 31 33 32 36 41 39 28 26 22 27 26 26 21 19 17 20 23 21 19 17 17 17 20 24 21 23 25 20 20 23 28 24 20 20 18 21 23 20 21 16 14 16 16 18 18 14 13 12 13 16 10 13 17 17 17 15 15 18 14 14 14 15 16 17 18 18 20 21 21 22 21 21 20 19 18 17
54 53 53 54 54 54 57 53 52 44 37 36 36 34 35 40 40 36 24 17 22 25 28 26 23 21 18 19 21 21 20 21 19 18 22 24 23 25 25 22 19 24 22 24 21 19 16 19 18 20 18 14 16 15 14 14 13 16 13 12 12 11 11 11 12 14 18 17 19 17 12 10 14 14 15 16 18 19 20 21 21 22 22 21 20 19 18 16
54 54 54 54 54 54 54 45 41 39 37 33 36 39 40 40 41 32 19 18 21 20 28 25 25 22 22 25 28 24 22 23 20 20 21 23 24 22 21 26 17 17 19 24 23 20 19 20 19 17 17 15 14 16 15 12 15 14 16 15 13 13 13 14 14 13 12 10 12 11 7 4 13 14 14 16 17 18 19 20 20 21 21 20 19 18 17 16
53 54 54 54 54 52 49 29 21 38 33 29 33 41 39 39 41 33 23 16 4 14 24 17 24 21 22 20 25 25 24 20 19 20 32 25 26 22 20 16 19 17 20 22 21 19 18 19 17 17 17 17 16 14 15 15 13 10 11 17 16 15 15 14 14 13 10 6 9 12 5 6 13 13 14 15 17 17 18 19 19 20 20 20 20 18 17 16
53 54 55 55 53 49 29 23 21 34 22 26 40 42 42 43 39 35 25 10 5 15 17 23 19 18 24 24 23 20 12 12 17 22 21 27 23 27 18 17 19 24 23 24 20 6 19 18 18 18 17 18 17 15 16 15 11 12 17 18 15 15 15 15 15 13 12 15 15 14 9 6 6 13 15 15 16 16 18 18 19 19 20 20 19 19 18 17
54 54 55 55 53 43 24 27 27 28 20 26 41 41 40 40 40 29 17 -5 -6 21 18 21 22 25 21 24 22 15 14 18 13 16 24 26 28 24 19 18 16 18 21 17 4 12 16 18 18 17 18 17 16 17 16 16 13 14 17 17 16 15 15 16 14 13 13 9 10 11 14 8 6 11 15 16 15 15 16 17 18 19 20 20 20 19 19 18
55 55 55 54 53 47 35 29 30 28 30 40 40 40 40 34 30 19 11 -4 -1 17 24 21 28 18 22 24 20 23 22 21 15 19 25 26 20 21 17 18 19 22 22 17 8 14 19 20 20 19 18 17 18 19 18 17 13 16 18 19 17 17 16 15 13 11 9 7 6 9 10 4 5 13 13 14 13 14 15 17 18 19 20 20 20 21 21 20
55 54 54 53 43 36 34 34 32 32 40 40 38 37 34 29 19 13 -3 -13 16 5 22 19 19 16 24 20 20 20 17 18 24 23 24 17 16 20 23 25 21 20 17 19 16 17 17 28 27 21 18 19 18 17 19 19 17 19 15 12 12 9 10 11 8 5 4 -4 7 7 8 6 5 10 13 13 14 15 16 17 18 19 20 20 21 21 21 19
54 54 52 49 31 31 31 27 29 41 43 44 38 35 27 16 12 2 -13 -5 17 17 21 19 18 23 21 18 14 20 21 21 20 22 19 21 16 18 20 17 21 16 17 14 14 14 19 22 22 22 28 22 18 13 20 21 20 14 12 11 8 8 5 7 6 5 -3 -2 4 7 8 9 3 5 13 16 16 15 17 16 17 18 19 20 21 21 21 21
53 53 51 39 35 32 28 28 31 43 43 42 35 29 21 -2 17 -2 -10 16 1 8 11 14 22 20 19 20 15 17 17 19 20 20 17 17 14 15 15 13 14 8 9 10 10 13 12 13 18 21 29 15 15 11 12 15 14 13 11 9 6 3 3 -3 -0 -1 -3 -1 6 7 8 5 8 10 16 16 15 15 16 17 17 18 19 20 21 22 23 23
53 52 48 46 43 35 33 33 42 43 41 36 27 22 10 8 -10 0 2 9 -0 12 15 20 20 20 17 13 13 17 20 14 19 17 21 19 16 14 17 16 16 8 6 9 7 9 11 13 14 16 19 20 14 10 12 10 12 12 10 6 4 2 -7 -4 -2 -6 -4 4 5 6 7 5 8 13 17 15 15 16 16 17 18 18 19 20 21 22 24 25
53 47 37 43 37 37 38 40 41 41 33 31 20 21 15 5 -10 25 4 11 8 19 21 19 20 15 14 10 12 18 12 13 16 15 19 15 16 14 16 16 17 14 10 10 7 6 4 6 10 12 9 15 16 14 14 13 12 12 13 9 4 1 -0 -0 -6 -1 4 6 6 6 2 -2 6 10 18 15 16 17 18 19 20 21 22 22 23 24 24 24
51 44 40 38 37 38 41 40 42 40 33 22 12 16 4 -8 -1 -1 3 11 18 19 18 19 12 9 8 11 13 17 13 12 17 13 15 16 15 15 15 14 17 14 15 12 6 4 6 5 8 15 15 16 13 17 16 12 11 11 12 11 9 4 7 2 -1 -0 -3 3 4 -2 -1 7 11 17 19 19 18 18 19 19 20 20 21 22 23 24 24 24
47 36 37 32 35 34 39 39 38 36 24 15 13 10 1 -1 5 8 9 17 18 19 20 17 11 12 10 12 13 13 16 12 17 10 9 16 17 15 17 15 17 17 12 7 4 4 10 6 9 12 14 15 15 17 15 16 6 9 9 4 8 13 9 2 7 6 3 -2 -0 -6 8 13 15 16 17 17 17 17 18 19 19 20 21 21 22 24 24 24
37 35 22 31 30 33 39 38 36 28 21 17 15 7 5 10 12 11 29 21 20 22 13 11 8 10 7 9 10 13 16 14 13 11 8 11 11 16 18 17 17 18 17 11 10 7 4 8 13 11 10 14 16 18 15 16 13 10 3 10 12 12 10 5 1 -2 -10 -2 1 2 2 5 7 1 15 16 16 17 18 20 20 20 21 20 21 22 24 24
35 31 29 28 29 34 40 39 30 26 24 18 18 26 20 13 21 22 24 26 22 19 13 12 9 14 7 10 14 12 17 11 13 13 9 10 10 16 16 16 18 18 20 20 8 10 11 6 10 12 12 12 14 14 10 13 15 12 11 14 9 2 5 8 -2 -4 -1 1 0 3 1 1 5 8 14 14 16 16 18 19 18 18 19 21 21 22 22 24
32 27 17 23 30 34 37 32 27 21 18 19 11 22 22 17 21 25 24 27 21 18 15 14 10 12 13 8 11 15 15 12 14 13 6 11 7 15 18 18 16 19 20 18 12 16 12 4 9 11 12 12 11 11 6 9 11 12 12 11 12 6 1 2 2 1 3 4 3 7 5 6 12 14 17 15 16 17 20 19 19 18 19 21 19 19 21 23
25 21 12 22 30 35 34 32 24 22 20 16 10 15 19 22 26 27 26 28 21 14 14 15 16 12 14 14 16 11 16 15 15 14 11 12 12 18 21 22 20 22 20 17 13 16 11 8 2 9 11 10 8 11 9 10 8 10 10 7 8 -0 9 8 2 2 3 1 2 3 5 7 14 19 20 20 20 20 19 17 19 19 19 20 18 19 20 20
28 20 17 28 29 32 30 26 21 21 19 20 22 23 26 25 26 23 28 29 26 23 18 17 18 15 16 16 14 19 14 16 16 13 13 12 13 9 19 24 24 21 21 17 16 13 6 10 5 10 10 9 8 13 12 11 11 10 10 8 10 5 7 6 6 -1 -3 4 6 4 6 8 16 19 20 20 21 20 20 19 19 18 18 19 17 15 14 13
22 12 17 25 29 31 27 22 18 21 21 18 17 23 30 34 22 22 24 26 23 23 23 20 20 19 19 18 16 16 17 14 16 10 11 11 16 19 20 19 22 23 15 12 12 15 13 11 10 6 10 9 10 12 15 14 12 13 13 12 9 4 2 3 1 5 2 3 4 8 6 9 17 20 21 21 21 21 21 20 18 17 18 16 14 12 11 14
18 14 23 31 29 27 21 15 23 23 17 22 21 23 24 24 21 21 21 23 19 22 20 20 20 15 16 19 19 18 17 12 16 12 13 15 16 20 21 20 21 20 19 12 14 15 23 2 -1 6 7 6 8 9 13 13 14 13 12 12 12 9 6 5 6 3 6 4 7 9 7 10 18 22 21 21 22 22 21 20 18 16 14 13 11 9 8 12
21 17 21 28 28 30 20 12 13 16 22 25 22 22 21 25 22 22 22 23 22 20 17 19 18 19 18 20 19 18 19 5 13 14 14 15 16 19 19 20 21 21 16 14 11 19 4 8 8 -1 -3 -1 2 6 9 12 14 12 10 12 9 7 2 0 -1 -3 3 4 9 7 2 8 20 21 21 19 17 16 16 18 16 13 12 11 10 8 8 9
21 21 27 25 26 23 15 20 19 16 18 15 15 15 18 19 24 24 23 23 24 21 18 19 20 20 21 20 19 20 20 14 13 13 13 12 14 16 19 19 20 20 23 23 29 25 6 8 5 -2 -2 -0 0 3 6 10 12 12 11 10 10 5 7 8 4 2 5 8 10 5 7 15 19 18 15 14 13 13 13 13 13 12 10 9 9 8 9 7
16 9 18 17 21 23 24 24 22 18 12 11 15 14 19 15 17 21 25 25 23 22 20 21 21 21 19 17 17 18 18 20 14 11 11 12 13 15 20 17 20 20 27 31 21 13 4 7 6 0 0 1 6 7 10 16 12 6 8 8 8 5 2 5 7 4 6 10 9 10 13 11 11 12 12 12 12 11 11 12 11 9 9 9 8 8 10 8
19 17 11 8 23 20 20 23 24 23 14 20 13 15 11 17 17 19 23 16 22 21 20 20 19 17 17 16 16 16 19 16 15 12 11 12 12 15 15 18 18 22 28 26 19 5 -0 2 6 9 5 9 10 11 12 15 11 12 7 9 8 6 3 5 7 7 13 10 4 9 10 10 10 12 11 11 11 11 11 10 9 9 8 8 7 8 12 7
16 15 18 18 17 9 18 16 23 22 23 22 13 17 16 15 16 13 17 21 23 22 13 13 17 19 19 18 16 9 14 12 12 8 11 13 13 16 16 16 18 20 22 16 13 9 1 2 5 8 5 6 9 12 13 12 11 12 11 11 9 9 5 5 7 11 12 9 6 9 11 10 11 11 11 11 11 11 11 10 9 9 8 7 7 7 6 6
22 21 23 23 16 18 20 17 24 22 22 23 23 18 14 16 14 18 17 19 14 15 18 11 16 19 20 21 17 11 13 6 7 9 11 12 12 13 8 10 18 18 18 15 13 0 6 2 5 5 8 9 10 11 11 10 10 9 8 11 12 10 9 7 9 12 12 11 12 12 11 10 11 11 10 11 11 11 10 10 9 7 6 6 7 7 6 5
18 19 14 22 24 22 22 21 22 21 17 22 13 14 17 17 16 19 21 18 12 17 20 18 18 20 21 20 17 12 15 15 13 11 11 13 11 9 9 10 13 19 18 14 10 12 8 4 9 3 2 2 8 7 8 9 8 8 11 11 10 10 11 12 11 13 12 10 11 11 10 9 10 11 11 12 12 11 10 8 7 7 6 6 7 6 5 5
23 25 23 19 18 17 21 20 20 20 18 19 14 14 19 16 18 21 21 20 18 19 20 19 20 21 20 19 19 19 19 19 19 18 17 16 11 15 10 10 20 15 14 10 8 10 8 6 -9 -7 0 -1 5 8 10 10 9 8 10 11 10 10 9 13 12 12 9 8 10 9 6 6 11 11 12 12 11 10 9 8 7 6 6 6 5 4 4 3
28 30 25 22 14 19 15 18 18 21 13 15 17 17 17 17 19 19 12 19 22 20 21 22 21 21 18 16 16 19 21 21 21 22 22 21 21 22 21 17 20 17 10 9 3 5 1 3 1 -2 -0 -7 3 8 9 9 6 0 -3 9 11 11 12 14 14 12 11 11 8 6 6 10 10 12 11 10 10 9 9 8 7 5 5 4 4 4 3 -1